This is the latest recevied weather packets stored in our database for station/object WMKL. If no packets are shown the sender has not sent any weather packets the latest 10 day(s).
| Time | Temp. | Humidity | Pressure | Rain* | Wind** | Luminosity | Snow |
|---|---|---|---|---|---|---|---|
| 1777749066 | 25.56° C | 94% | 1008 hPa | - | - | - | - |
| 1777745443 | 26.67° C | 88% | 1010 hPa | - | - | - | - |
| 1777741842 | 25.56° C | 94% | 1010 hPa | - | - | - | - |
| 1777740643 | 26.67° C | 88% | 1010 hPa | - | - | - | - |
| 1777740057 | 25° C | 92% | 1011.2 hPa | - | - | - | - |
| 1777738243 | 26.67° C | 88% | 1010 hPa | - | - | - | - |
| 1777734642 | 26.67° C | 94% | 1010 hPa | - | - | - | - |
| 1777731063 | 26.67° C | 94% | 1008 hPa | - | - | - | - |
| 1777727442 | 26.67° C | 88% | 1008 hPa | - | - | - | - |
| 1777723847 | 27.78° C | 88% | 1007 hPa | - | - | - | - |
| 1777720244 | 30° C | 79% | 1007 hPa | - | - | - | - |
| 1777716662 | 30° C | 79% | 1006 hPa | - | - | - | - |
| 1777713042 | 28.89° C | 83% | 1006 hPa | - | - | - | - |
| 1777710592 | 26.67° C | 94% | 1006 hPa | - | - | - | - |
| 1777709442 | 26.67° C | 94% | 1006 hPa | - | - | - | - |
| 1777705843 | 25° C | 94% | 1008 hPa | - | - | - | - |
| 1777702260 | 31.67° C | 66% | 1009 hPa | - | - | - | - |
| 1777698646 | 31.67° C | 70% | 1009 hPa | - | - | - | - |
| 1777695041 | 30.56° C | 74% | 1010 hPa | - | - | - | - |
| 1777691441 | 31.67° C | 70% | 1010 hPa | - | - | - | - |
| 1777687860 | 30° C | 74% | 1010 hPa | - | - | - | - |
| 1777684244 | 28.89° C | 79% | 1009 hPa | - | - | - | - |
| 1777680642 | 26.67° C | 88% | 1009 hPa | - | - | - | - |
| 1777677041 | 26.67° C | 83% | 1008 hPa | - | - | - | - |
| 1777673442 | 26.67° C | 88% | 1008 hPa | - | - | - | - |
* Rain since midnight (hover to see other rain measurements)
** Current wind speed in m/s (hover to see current wind gust speed)